Simultaneous Nadir Overpasses (SNOs) Predictions

Prediction of SNOs between GOES-14 and AQUA Satellite Orbit:

Table of predicted SNOs for the next 14.0 days since TLE Epoch: 11/16/2024
Index Date Time (GOES-14) GOES-14 Lat,Lon AQUA Lat,Lon Distance(km) Time Diff (sec)
1 11/17/2024 21:32:38 -0.01,-108.54 0.11,-107.86 76.64 80
2 11/18/2024 09:54:56 0.03,-108.61 0.91,-112.61 455.11 80
3 11/20/2024 09:33:48 0.02,-108.61 -0.09,-108.10 58.30 80
4 11/20/2024 21:56:13 -0.04,-108.53 -0.94,-112.87 493.42 80
5 11/22/2024 21:35:03 -0.03,-108.53 0.03,-108.35 21.32 80
6 11/25/2024 09:36:09 0.04,-108.61 0.02,-108.56 5.83 80
7 11/27/2024 21:40:01 -0.05,-108.54 -0.10,-108.79 29.11 80
8 11/29/2024 21:18:47 -0.05,-108.54 0.87,-104.25 487.49 80
